Wind_Speed
25 25 24 22 21 20 20 21 20 19 19 20 21 22 23 24 26 27 27 29 30 32 34 35 36 37 38 39 41 44 45 46 47 50 53 56 59 62 64 66 67 68 67
27 29 30 28 27 26 26 27 26 23 22 24 25 27 28 30 30 31 32 34 35 37 38 40 41 43 44 44 47 49 50 51 52 54 55 58 61 64 65 65 64 63 62
29 30 33 32 31 30 30 32 31 28 26 27 29 31 33 34 36 38 39 41 42 43 44 45 47 49 51 52 52 53 53 54 56 58 59 60 61 62 63 61 57 53 49
31 31 32 32 32 33 34 35 35 32 31 31 33 34 36 38 40 43 45 48 50 51 52 53 54 56 56 56 56 56 56 57 59 61 62 61 59 57 54 51 48 45 44
34 34 34 34 35 36 37 37 37 36 36 35 35 36 39 42 45 48 50 54 56 57 57 58 59 60 60 58 57 57 57 59 61 62 61 58 54 51 48 46 45 45 45
38 37 38 38 39 40 41 42 41 40 38 36 36 38 41 45 48 50 51 52 53 53 53 54 55 56 57 57 57 57 58 60 62 61 59 54 51 49 48 47 46 46 47
39 38 39 39 40 42 44 45 43 40 38 37 38 41 44 45 46 47 46 46 47 46 46 48 49 51 53 55 57 58 60 61 61 59 55 53 51 51 50 50 50 50 51
32 33 35 37 38 40 41 41 39 38 37 38 40 42 42 42 43 45 44 44 45 46 46 48 50 52 54 57 59 60 61 61 59 57 54 53 53 54 55 56 56 56 57
29 29 31 32 33 34 35 36 36 37 38 40 41 42 41 43 45 44 43 44 46 47 48 51 53 55 57 58 59 60 60 59 58 56 55 55 56 57 59 60 61 62 63
27 28 29 29 29 30 32 33 35 38 40 40 41 41 43 44 45 45 45 46 47 49 51 53 54 55 56 58 59 59 59 58 57 56 57 58 60 61 61 62 64 65 66
25 26 28 29 30 31 33 35 37 38 39 38 40 44 45 47 46 46 46 46 48 50 52 53 54 55 57 58 59 58 58 57 57 58 59 60 61 61 62 64 64 64 64
25 27 29 30 32 33 36 37 38 39 39 41 44 46 49 48 47 47 46 47 49 50 51 52 54 56 57 57 57 57 57 57 58 59 60 61 61 62 61 60 59 58 57
28 30 32 34 35 37 39 39 40 41 43 46 48 49 48 48 47 47 47 48 49 50 51 53 54 55 55 55 55 55 56 58 59 60 60 60 60 58 55 52 50 48 46
32 34 36 37 39 40 41 42 43 46 48 50 49 48 48 47 47 47 47 47 48 50 51 52 52 52 53 53 54 56 57 58 58 59 58 56 53 48 44 40 38 36 34
35 37 39 41 43 45 46 46 47 49 49 48 47 47 48 48 47 47 46 47 48 49 49 49 50 51 52 54 56 57 57 57 57 55 52 48 42 37 34 32 31 29 26
39 41 43 46 49 50 47 46 47 47 47 47 48 49 50 49 46 45 46 47 47 47 48 49 51 52 54 55 56 56 56 54 51 48 44 39 35 33 32 30 27 23 20
47 49 51 52 51 47 46 46 44 45 47 49 51 51 49 45 44 45 46 46 46 47 49 51 52 54 54 54 54 53 51 48 44 41 38 36 34 34 31 28 23 20 18
51 51 50 49 45 43 44 44 45 48 50 52 52 48 43 43 44 45 45 45 47 48 50 51 52 52 52 52 51 48 45 42 39 37 35 34 33 31 28 24 21 18 16
47 45 44 42 41 41 43 45 48 51 52 50 45 41 41 42 43 43 44 46 48 49 49 49 49 50 50 48 45 41 38 36 34 33 32 30 27 24 20 18 16 13 10
42 41 40 39 40 40 42 46 49 49 45 40 38 39 40 41 41 42 45 46 47 47 47 48 48 47 45 42 38 34 32 30 29 29 29 26 21 16 13 11 9 7 4
39 37 35 35 38 41 43 45 44 40 36 35 35 37 38 39 41 43 45 45 46 46 47 47 46 43 40 36 32 30 28 26 25 25 25 21 15 9 6 5 3 3 4
30 28 29 34 39 40 39 37 34 32 32 32 33 34 37 39 41 43 44 44 45 45 45 44 41 37 34 31 28 26 25 23 23 24 20 13 7 2 1 4 7 8 9
23 25 29 34 35 34 32 30 29 29 29 30 32 35 37 40 41 42 43 44 44 43 41 38 35 33 30 26 24 23 21 22 23 20 14 8 5 6 9 11 12 11 11
23 25 27 29 30 29 28 27 26 26 27 30 33 36 38 39 40 42 43 43 41 38 34 31 30 28 24 21 20 20 19 19 18 13 10 10 12 14 16 15 13 12 10
23 25 27 27 25 24 22 22 23 25 28 31 34 36 38 39 41 41 41 39 34 29 27 27 26 23 18 16 16 17 15 15 12 10 12 15 17 18 18 17 15 12 10
23 24 23 20 18 17 18 19 23 26 29 32 34 37 39 40 40 39 36 31 26 23 24 24 22 18 13 12 15 14 13 12 11 11 14 17 19 20 20 18 16 13 11
Wind_Direction
261 263 263 264 268 274 278 280 282 284 292 298 302 301 300 302 306 306 303 300 296 293 290 289 289 291 294 297 300 301 300 298 296 292 290 288 286 285 283 282 280 279 277
264 262 263 262 264 269 275 277 276 277 283 292 297 298 297 298 301 302 302 298 296 294 292 290 289 290 291 295 299 300 300 299 297 295 293 291 289 288 286 283 280 279 278
261 259 262 262 263 269 275 279 280 280 283 288 293 295 296 298 300 300 300 298 295 292 290 289 290 290 291 293 296 298 299 298 297 297 296 293 290 288 287 285 283 281 279
263 261 262 263 265 269 275 280 283 286 287 290 293 294 294 296 297 297 297 297 296 294 293 291 291 290 290 292 294 296 297 297 297 297 297 295 292 289 287 285 283 281 278
264 261 261 264 267 270 275 279 283 285 287 289 292 294 295 294 295 296 296 296 297 296 296 295 294 292 291 290 293 295 295 296 297 297 297 295 292 289 286 282 280 280 278
264 262 263 267 270 273 277 279 281 283 285 287 291 294 294 294 293 294 296 296 298 299 300 298 297 295 293 292 293 293 294 295 296 296 296 294 291 289 286 283 281 279 277
265 264 264 266 271 275 278 280 282 282 283 286 291 294 295 295 294 296 299 300 302 302 302 301 298 295 294 293 293 294 295 296 296 295 293 291 290 288 286 283 281 279 278
265 265 268 270 273 275 277 278 279 280 284 288 292 294 295 298 301 302 304 305 305 304 302 300 297 294 293 293 294 296 296 296 295 293 291 290 289 287 286 285 283 281 280
266 271 276 278 277 276 276 277 280 284 287 290 291 294 298 304 308 309 308 307 304 301 299 297 295 295 295 295 296 296 296 295 293 292 291 290 289 288 288 287 286 285 282
267 273 277 279 277 276 277 280 284 287 288 291 294 299 305 308 310 310 307 303 300 299 298 297 296 296 296 296 296 296 295 294 294 293 292 291 291 291 291 290 288 287 285
271 275 276 276 275 276 280 284 286 287 288 290 298 305 308 311 310 307 304 301 298 297 297 297 297 297 296 296 296 295 295 295 295 294 293 293 294 295 294 292 290 288 287
272 275 277 279 281 283 285 288 288 288 288 295 303 308 310 310 308 305 301 299 297 297 298 298 298 298 297 296 296 296 296 296 296 296 296 297 297 297 295 293 291 289 286
278 280 282 284 287 289 290 291 291 290 294 301 306 308 308 307 304 301 299 298 298 298 299 299 298 297 296 296 297 297 298 298 299 299 300 300 299 297 296 295 293 290 287
281 281 282 284 287 290 292 292 293 296 301 305 307 306 304 302 300 298 298 298 299 300 300 299 298 297 298 298 299 300 301 302 303 303 302 300 298 297 297 297 296 294 291
282 282 284 287 289 291 293 294 297 301 303 304 304 302 299 298 297 297 298 300 300 301 300 300 300 301 302 303 304 305 305 306 305 304 302 300 297 297 297 299 300 298 294
285 288 291 293 294 295 294 296 299 300 300 299 298 297 295 295 297 298 300 302 303 304 304 305 306 307 308 309 309 309 308 307 306 304 302 299 296 296 298 300 300 299 296
286 290 293 294 294 293 293 294 294 292 293 292 291 290 291 295 299 301 303 305 306 307 308 310 311 311 312 312 311 310 309 307 306 304 301 298 296 294 294 295 293 293 293
284 287 288 289 289 287 288 287 287 287 287 286 286 290 295 299 301 303 306 308 309 311 313 313 313 313 314 313 312 310 308 307 305 304 302 301 298 293 289 286 285 286 290
282 283 285 284 280 279 280 278 281 282 283 284 289 295 299 301 304 307 309 311 313 314 314 314 315 315 315 314 312 310 309 308 308 309 308 308 304 296 288 281 279 281 283
279 280 280 279 274 272 272 273 276 279 283 289 296 300 302 304 308 310 312 314 314 314 314 315 317 317 316 315 313 313 313 315 316 317 316 314 309 298 285 277 271 267 255
276 276 276 273 267 264 267 272 277 284 292 298 300 302 306 309 312 314 314 314 314 314 315 317 318 318 318 317 317 318 320 322 324 324 322 318 312 298 281 265 227 186 160
272 271 267 262 260 263 272 281 290 296 299 301 304 308 311 314 315 315 314 314 315 317 318 319 319 320 321 320 321 323 327 330 332 334 334 332 328 314 148 136 134 133 132
265 263 261 262 268 279 289 295 298 301 304 308 311 314 315 316 315 315 316 317 318 318 319 320 321 323 323 323 325 330 335 338 340 343 352 11 65 99 110 114 117 121 122
258 261 267 274 281 288 293 297 301 306 311 314 316 316 316 315 316 317 318 319 320 321 322 323 325 326 325 328 332 337 340 343 346 359 33 71 91 100 103 106 109 112 113
260 268 276 280 284 288 293 301 308 314 317 318 317 316 316 316 318 319 321 322 324 325 326 327 327 327 328 333 338 342 345 351 7 43 76 90 96 100 102 102 101 102 107
271 274 276 281 286 293 304 313 319 321 320 318 318 318 318 319 320 322 324 327 329 330 331 330 329 330 331 337 343 348 356 11 40 73 91 98 102 102 102 101 98 98 102
Height
5861 5860 5860 5860 5859 5857 5855 5854 5853 5851 5850 5848 5846 5844 5842 5840 5837 5835 5832 5829 5826 5823 5819 5816 5812 5808 5805 5801 5796 5792 5787 5782 5777 5772 5766 5761 5755 5750 5745 5740 5734 5729 5725
5856 5855 5854 5854 5853 5852 5850 5848 5846 5845 5843 5842 5840 5838 5835 5833 5831 5828 5825 5822 5819 5815 5811 5808 5804 5799 5795 5791 5786 5780 5775 5768 5763 5757 5752 5746 5740 5732 5727 5722 5717 5712 5708
5850 5849 5848 5848 5847 5846 5844 5841 5839 5837 5835 5833 5831 5829 5827 5825 5822 5819 5816 5813 5809 5806 5802 5798 5793 5789 5783 5778 5773 5768 5761 5755 5748 5742 5736 5729 5723 5716 5709 5704 5700 5697 5694
5842 5842 5841 5841 5840 5839 5837 5834 5831 5829 5827 5825 5823 5820 5818 5815 5813 5809 5805 5801 5798 5794 5790 5786 5781 5776 5770 5765 5760 5754 5747 5741 5733 5726 5719 5712 5705 5699 5695 5690 5687 5685 5683
5835 5835 5834 5834 5832 5830 5829 5826 5824 5821 5819 5816 5814 5811 5809 5806 5802 5798 5794 5789 5785 5781 5777 5773 5768 5763 5757 5752 5746 5739 5733 5725 5719 5711 5704 5697 5691 5685 5681 5677 5675 5672 5670
5827 5827 5827 5825 5824 5822 5820 5817 5815 5813 5810 5807 5805 5802 5799 5795 5792 5787 5783 5777 5773 5768 5763 5758 5753 5747 5742 5737 5731 5724 5718 5711 5704 5696 5689 5683 5678 5673 5669 5664 5661 5659 5658
5818 5818 5818 5817 5815 5813 5810 5807 5805 5803 5800 5798 5795 5792 5789 5785 5780 5776 5772 5766 5760 5755 5750 5744 5739 5733 5728 5721 5716 5709 5703 5696 5689 5682 5675 5669 5664 5660 5656 5652 5648 5645 5643
5809 5809 5808 5807 5806 5804 5801 5798 5796 5794 5792 5789 5786 5782 5778 5774 5770 5765 5760 5755 5748 5742 5737 5731 5725 5719 5713 5707 5701 5695 5688 5681 5675 5668 5662 5656 5651 5647 5642 5637 5633 5629 5626
5801 5800 5799 5798 5796 5794 5792 5790 5788 5785 5783 5779 5776 5772 5768 5763 5759 5754 5748 5742 5736 5730 5724 5718 5712 5706 5700 5693 5687 5680 5673 5666 5660 5654 5648 5643 5637 5632 5627 5621 5616 5611 5607
5793 5792 5791 5789 5788 5785 5783 5781 5779 5776 5773 5769 5765 5761 5757 5752 5747 5742 5736 5730 5723 5717 5711 5705 5699 5693 5686 5679 5672 5665 5658 5652 5645 5640 5634 5628 5622 5616 5610 5604 5598 5591 5586
5785 5784 5783 5781 5779 5777 5775 5773 5770 5766 5762 5759 5755 5751 5746 5740 5735 5729 5723 5717 5711 5705 5699 5692 5686 5679 5672 5665 5658 5651 5644 5638 5631 5625 5619 5613 5606 5599 5592 5585 5578 5572 5565
5777 5776 5775 5773 5771 5769 5766 5763 5760 5756 5752 5748 5744 5739 5733 5728 5722 5716 5710 5705 5699 5693 5686 5680 5673 5666 5658 5651 5644 5637 5630 5623 5617 5609 5602 5595 5588 5581 5573 5566 5560 5553 5547
5769 5768 5766 5765 5763 5760 5756 5753 5750 5746 5741 5736 5732 5727 5721 5715 5710 5704 5698 5692 5686 5680 5674 5667 5660 5652 5645 5638 5630 5623 5616 5608 5600 5592 5585 5577 5570 5563 5557 5550 5543 5537 5532
5760 5759 5757 5755 5753 5749 5746 5742 5738 5734 5729 5724 5720 5715 5709 5704 5698 5692 5686 5680 5674 5668 5661 5653 5646 5639 5632 5624 5616 5608 5600 5592 5584 5576 5568 5561 5554 5548 5543 5537 5531 5525 5521
5751 5749 5747 5745 5742 5738 5734 5730 5726 5722 5717 5712 5707 5702 5697 5692 5686 5680 5674 5668 5662 5655 5647 5640 5633 5625 5618 5610 5601 5592 5584 5576 5568 5560 5553 5546 5541 5537 5532 5527 5522 5517 5513
5741 5739 5737 5734 5730 5726 5722 5718 5713 5709 5704 5700 5695 5690 5685 5680 5674 5669 5663 5656 5649 5642 5634 5627 5619 5611 5602 5594 5585 5577 5569 5561 5554 5547 5540 5535 5531 5527 5523 5519 5514 5510 5507
5730 5728 5726 5722 5718 5714 5710 5706 5702 5698 5694 5690 5685 5679 5674 5669 5663 5658 5651 5644 5637 5630 5622 5613 5605 5596 5588 5580 5572 5564 5555 5548 5542 5535 5530 5525 5521 5518 5514 5511 5508 5506 5504
5719 5717 5714 5711 5707 5703 5700 5695 5692 5688 5684 5679 5674 5668 5663 5658 5652 5646 5639 5632 5625 5617 5609 5601 5592 5584 5576 5569 5560 5552 5544 5538 5531 5526 5520 5515 5510 5507 5504 5503 5502 5501 5500
5707 5705 5703 5700 5696 5693 5690 5686 5682 5678 5674 5668 5663 5658 5653 5647 5641 5635 5628 5621 5613 5606 5598 5591 5582 5574 5566 5558 5550 5542 5535 5528 5522 5517 5511 5505 5501 5497 5496 5496 5496 5496 5496
5695 5694 5692 5690 5687 5683 5680 5676 5672 5668 5663 5658 5653 5648 5643 5637 5631 5624 5617 5610 5602 5595 5588 5581 5573 5565 5556 5548 5541 5534 5527 5521 5515 5509 5503 5498 5494 5491 5491 5491 5492 5493 5494
5684 5683 5682 5681 5678 5674 5671 5667 5663 5659 5654 5649 5644 5639 5633 5627 5621 5614 5607 5600 5593 5586 5579 5571 5564 5556 5548 5540 5533 5527 5521 5515 5510 5504 5498 5492 5489 5488 5488 5489 5490 5492 5493
5675 5674 5673 5671 5668 5665 5661 5658 5654 5650 5646 5641 5636 5630 5624 5618 5611 5605 5598 5591 5584 5576 5569 5562 5554 5547 5540 5534 5527 5522 5516 5511 5505 5499 5493 5489 5487 5486 5487 5488 5490 5492 5494
5668 5667 5666 5663 5661 5657 5654 5651 5647 5643 5638 5633 5628 5622 5616 5609 5603 5596 5589 5582 5574 5567 5560 5553 5546 5540 5534 5529 5524 5519 5513 5508 5503 5497 5492 5489 5487 5487 5489 5490 5493 5495 5497
5662 5661 5659 5657 5655 5652 5648 5645 5641 5636 5631 5626 5620 5615 5608 5602 5595 5588 5581 5573 5566 5559 5552 5546 5540 5535 5530 5525 5521 5517 5512 5508 5502 5497 5494 5491 5490 5491 5493 5495 5497 5499 5500
5656 5655 5654 5652 5650 5647 5643 5639 5635 5630 5625 5620 5614 5608 5601 5594 5587 5580 5572 5565 5558 5552 5546 5541 5536 5531 5527 5523 5519 5515 5511 5507 5502 5499 5496 5495 5495 5496 5498 5500 5501 5503 5504
5652 5650 5649 5647 5645 5642 5638 5634 5630 5625 5620 5614 5608 5601 5594 5587 5579 5571 5564 5557 5552 5547 5542 5537 5532 5528 5525 5522 5519 5515 5511 5507 5504 5501 5500 5500 5501 5502 5503 5505 5506 5507 5508